Powrót do katalogu

STARLINK-34199

AktywnyŁącznośćVLEO
NORAD 64924·PAYLOAD·🇺🇸 United States

Wystrzelony Jul 26, 2025 z Cape Canaveral Space Force Station

Loading…

Następne Przeloty (najbliższe 24 godziny)

TLE

ŚwieżeSource: CelesTrak SupGP

Epoka: Sep 14, 2026, 21:32 UTC

1 64924C 25157W   26257.89770833 -.00002476  00000+0 -79583-4 0  2575
2 64924  53.1577 185.0983 0001331  90.6058  14.7930 15.31712580    13

Śledź STARLINK-34199 w czasie rzeczywistym z AllMySat

Download on the App Store